ASA62 PAJN-PASI

Flight info

Callsign ASA62
Flight time N/A
Altitude 13000
Route RODMN1 RODMN
Aircraft MD83/M-SDFGIRWY/S

Departure

Time N/A
Airport Juneau International Airport (PAJN)

Arrival

Time 2026-05-03 20:23
Airport Sitka Rocky Gutierrez Airport (PASI)
Time Latitude Longitude Altitude Speed Heading
2026-05-03 20:15 56.96081 -135.45122 2589 ft 177 kts 22°
2026-05-03 20:15 56.97165 -135.44258 2562 ft 164 kts 20°
2026-05-03 20:15 56.98176 -135.43470 2341 ft 152 kts 21°
2026-05-03 20:15 56.99117 -135.42708 2045 ft 143 kts 22°
2026-05-03 20:16 56.99990 -135.41979 1692 ft 138 kts 22°
2026-05-03 20:16 57.00853 -135.41138 1208 ft 141 kts 34°
2026-05-03 20:16 57.01572 -135.39965 832 ft 140 kts 45°
2026-05-03 20:16 57.02280 -135.38600 670 ft 144 kts 46°
2026-05-03 20:17 57.02940 -135.37255 547 ft 141 kts 54°
2026-05-03 20:17 57.03319 -135.35531 570 ft 157 kts 83°
2026-05-03 20:17 57.03212 -135.33511 679 ft 162 kts 109°
2026-05-03 20:17 57.02795 -135.31686 737 ft 149 kts 115°
2026-05-03 20:18 57.02368 -135.30011 656 ft 143 kts 111°
2026-05-03 20:18 57.02346 -135.28067 624 ft 166 kts 66°
2026-05-03 20:18 57.03244 -135.26774 690 ft 172 kts
2026-05-03 20:18 57.04202 -135.27738 945 ft 176 kts 296°
2026-05-03 20:19 57.04390 -135.30005 1651 ft 178 kts 269°
2026-05-03 20:19 57.04188 -135.32203 2280 ft 187 kts 252°
2026-05-03 20:19 57.03575 -135.34505 2597 ft 211 kts 239°
2026-05-03 20:19 57.02836 -135.36929 2700 ft 218 kts 248°
2026-05-03 20:20 57.02542 -135.39627 2635 ft 217 kts 274°
2026-05-03 20:20 57.03067 -135.42158 2650 ft 214 kts 309°
2026-05-03 20:20 57.04177 -135.43905 2606 ft 207 kts 321°
2026-05-03 20:20 57.05252 -135.45483 2533 ft 184 kts 319°
2026-05-03 20:21 57.06288 -135.46705 2283 ft 174 kts 338°
2026-05-03 20:21 57.07065 -135.46919 2196 ft 161 kts
2026-05-03 20:21 57.07971 -135.45930 1814 ft 162 kts 54°
2026-05-03 20:21 57.08415 -135.43914 1352 ft 178 kts 83°
2026-05-03 20:22 57.08179 -135.41785 1168 ft 165 kts 124°
2026-05-03 20:22 57.07351 -135.40534 880 ft 152 kts 151°
2026-05-03 20:22 57.06503 -135.39395 559 ft 147 kts 137°
2026-05-03 20:22 57.05800 -135.38117 248 ft 137 kts 139°
2026-05-03 20:23 57.05141 -135.36932 42 ft 128 kts 137°
2026-05-03 20:23 57.04606 -135.35977 39 ft 80 kts 135°
2026-05-03 20:23 57.04315 -135.35452 38 ft 40 kts 135°
2026-05-03 20:23 57.04156 -135.35169 40 ft 17 kts 135°
2026-05-03 20:24 57.04086 -135.35063 40 ft 4 kts 123°
2026-05-03 20:24 57.04085 -135.35051 40 ft 0 kts 82°
2026-05-03 20:24 57.04093 -135.35044 40 ft 3 kts 19°
2026-05-03 20:24 57.04111 -135.35068 40 ft 6 kts 312°
2026-05-03 20:25 57.04192 -135.35228 40 ft 26 kts 315°
2026-05-03 20:25 57.04336 -135.35487 38 ft 37 kts 315°
2026-05-03 20:25 57.04561 -135.35898 36 ft 48 kts 316°
2026-05-03 20:25 57.04755 -135.36243 39 ft 17 kts 321°
2026-05-03 20:26 57.04882 -135.36310 34 ft 21 kts 355°
2026-05-03 20:26 57.05010 -135.36425 34 ft 22 kts 315°
2026-05-03 20:26 57.05116 -135.36622 37 ft 21 kts 314°
2026-05-03 20:26 57.05204 -135.36731 38 ft 11 kts 12°
2026-05-03 20:27 57.05222 -135.36677 39 ft 3 kts 83°
2026-05-03 20:27 57.05227 -135.36633 40 ft 4 kts 76°
2026-05-03 20:27 57.05229 -135.36622 40 ft 1 kts 75°
2026-05-03 20:27 57.05229 -135.36619 40 ft 0 kts 75°